Fort Collins, CO

9:54 AM MDT on September 25, 2017 (GMT -0600)
Fort Collins-Loveland Municipal

Weather History for KFNL - July, 2013

Change the Weather History Date:

Monday, July 1, 2013

  Actual Average Record
Temperature  
Mean Temperature 71 °F -  
Max Temperature 78 °F - 102 °F (2012)
Min Temperature 62 °F - 37 °F (2016)
Degree Days  
Heating Degree Days 0    
Month to date heating degree days  
Cooling Degree Days 6    
Month to date cooling degree days  
Growing Degree Days 21 (Base 50)    
Moisture  
Dew Point 53 °F    
Average Humidity 52    
Maximum Humidity 68    
Minimum Humidity 39    
Precipitation  
Precipitation 0.00 in - 0.05 in (2016)
Sea Level Pressure  
Sea Level Pressure 30.29 in    
Wind  
Wind Speed 8 mph (ESE)    
Max Wind Speed 14 mph    
Max Gust Speed 21 mph    
Visibility 10 miles    
Events Thunderstorm    
T = Trace of Precipitation, MM = Missing Value Source: NWS Daily Summary

Daily Weather History Graph

Daily Weather History Graph

Search for Another Location

Airport or City:

Trip Planner

Search our weather history database for the weather conditions in past years. The results will help you decide how hot, cold, wet, or windy it might be!

Date:

Astronomy

Jul. 01, 2013 Rise Set
Actual Time 5:33 AM MDT 8:34 PM MDT
Civil Twilight 5:00 AM MDT 9:07 PM MDT
Nautical Twilight 4:18 AM MDT 9:49 PM MDT
Astronomical Twilight 3:29 AM MDT 10:37 PM MDT
Moon 1:05 AM MDT (7/1) 2:51 PM MDT (7/1)
Length of Visible Light 16h 06m
Length of Day
15h 00m
Waning Crescent, 35% of the Moon is Illuminated
Jul 1
Waning Crescent
Jul 8
New
Jul 15
First Quarter
Jul 22
Full
Jul 29
Last Quarter

Hourly Weather History & Observations

Time (MDT) Temp. Dew Point Humidity Pressure Visibility Wind Dir Wind Speed Gust Speed Precip Events Conditions
1:55 PM 77.0 °F 53.6 °F 44% 30.29 in 10.0 mi West 6.9 mph - N/A   Scattered Clouds
2:15 PM 77.0 °F 51.8 °F 41% 30.29 in 10.0 mi NNW 3.5 mph - N/A   Mostly Cloudy
2:35 PM 78.8 °F 51.8 °F 39% 30.28 in 10.0 mi West 8.1 mph - N/A   Mostly Cloudy
2:55 PM 77.0 °F 51.8 °F 41% 30.28 in 10.0 mi West 10.4 mph - N/A   Mostly Cloudy
3:35 PM 75.2 °F 55.4 °F 50% 30.28 in 10.0 mi ENE 8.1 mph - N/A Thunderstorm Overcast
3:55 PM 69.8 °F 55.4 °F 60% 30.28 in 10.0 mi East 12.7 mph 20.7 mph N/A Thunderstorm Mostly Cloudy
4:15 PM 73.4 °F 55.4 °F 53% 30.29 in 10.0 mi ESE 10.4 mph - N/A   Scattered Clouds
4:35 PM 75.2 °F 53.6 °F 47% 30.28 in 10.0 mi East 8.1 mph - N/A   Clear
4:55 PM 77.0 °F 53.6 °F 44% 30.28 in 10.0 mi East 12.7 mph 16.1 mph N/A   Clear
5:15 PM 77.0 °F 53.6 °F 44% 30.27 in 10.0 mi ESE 11.5 mph 17.3 mph N/A   Clear
5:35 PM 75.2 °F 55.4 °F 50% 30.27 in 10.0 mi East 10.4 mph - N/A   Clear
5:55 PM 75.2 °F 53.6 °F 47% 30.26 in 10.0 mi East 9.2 mph - N/A   Clear
6:15 PM 77.0 °F 51.8 °F 41% 30.27 in 10.0 mi East 11.5 mph - N/A   Clear
6:35 PM 75.2 °F 51.8 °F 44% 30.27 in 10.0 mi East 9.2 mph - N/A   Clear
6:55 PM 75.2 °F 51.8 °F 44% 30.27 in 10.0 mi SE 8.1 mph - N/A   Clear
7:15 PM 75.2 °F 51.8 °F 44% 30.27 in 10.0 mi SE 6.9 mph - N/A   Clear
7:55 PM 69.8 °F 53.6 °F 56% 30.27 in 10.0 mi East 13.8 mph - N/A   Clear
8:15 PM 69.8 °F 53.6 °F 56% 30.28 in 10.0 mi East 11.5 mph - N/A   Clear
8:35 PM 68.0 °F 53.6 °F 60% 30.28 in 10.0 mi ESE 11.5 mph - N/A   Clear
9:15 PM 68.0 °F 53.6 °F 60% 30.31 in 10.0 mi East 10.4 mph - N/A   Mostly Cloudy
9:35 PM 68.0 °F 53.6 °F 60% 30.32 in 10.0 mi ESE 8.1 mph - N/A   Mostly Cloudy
9:55 PM 66.2 °F 53.6 °F 64% 30.32 in 10.0 mi East 3.5 mph - N/A   Partly Cloudy
10:15 PM 64.4 °F 53.6 °F 68% 30.34 in 10.0 mi Calm Calm - N/A   Partly Cloudy
10:35 PM 64.4 °F 51.8 °F 64% 30.34 in 10.0 mi SE 8.1 mph - N/A   Partly Cloudy
10:55 PM 64.4 °F 51.8 °F 64% 30.34 in 10.0 mi ESE 6.9 mph - N/A   Clear
11:15 PM 64.4 °F 51.8 °F 64% 30.34 in 10.0 mi South 5.8 mph - N/A   Clear
11:35 PM 62.6 °F 51.8 °F 68% 30.33 in 10.0 mi SSW 5.8 mph - N/A   Clear